Temperature
10 10 10 10 10 10 10 10 10 11 11 11 11 11 11 11 11 11 12 12 12 12 12 13 13 13 12 12 12 13 12 12 12 12 12 12 12 12 12 12 12 12 11
9 10 10 10 10 10 10 10 10 10 10 10 10 10 11 11 11 11 11 11 12 12 12 12 12 12 12 12 12 12 12 12 12 12 12 12 12 12 12 12 11 11 11
9 9 9 9 9 9 9 9 10 10 10 10 10 10 10 11 11 11 11 11 11 11 11 12 12 12 12 12 12 12 12 12 12 12 12 12 12 12 11 11 11 11 11
8 9 9 9 9 9 9 9 9 9 9 10 10 10 10 10 10 10 11 11 11 11 11 11 11 11 12 12 12 12 12 12 12 12 11 11 11 11 11 11 11 11 11
8 8 8 8 8 9 9 9 9 9 9 9 9 9 10 10 10 10 10 10 10 10 10 11 11 11 11 11 11 11 11 11 11 11 11 11 11 11 11 11 11 11 11
7 8 8 8 8 8 8 8 8 8 8 8 8 9 9 9 9 10 10 10 10 10 10 10 10 10 11 11 11 11 11 11 11 11 11 11 11 11 11 11 11 11 11
7 7 7 7 7 7 7 7 7 7 8 7 8 8 9 9 9 9 9 9 9 9 9 9 10 10 10 10 10 10 10 10 10 10 10 10 10 10 10 10 10 10 10
6 6 6 6 7 7 7 7 7 7 7 7 6 6 7 7 8 9 9 9 9 9 9 9 9 9 9 10 10 10 10 10 10 10 10 10 10 10 10 10 10 10 10
5 5 5 6 6 6 6 6 6 6 6 6 6 6 6 6 6 7 8 8 8 8 8 9 9 9 9 9 9 9 9 9 9 10 10 10 10 10 10 10 10 10 10
4 4 4 5 5 5 5 5 5 5 5 5 5 5 6 6 6 6 6 7 7 7 8 8 8 8 8 9 9 9 9 9 9 9 9 9 9 9 9 9 9 9 9
3 3 4 4 4 4 4 4 4 4 4 4 5 5 5 5 5 5 5 6 6 7 7 7 8 8 8 8 8 8 8 8 8 9 9 9 9 9 9 9 9 9 9
2 2 3 3 3 3 3 4 4 4 4 4 4 4 4 5 5 5 5 5 5 6 6 6 7 7 7 8 8 8 8 8 8 8 8 8 8 8 8 9 9 9 8
2 2 2 2 2 2 3 3 3 3 3 3 3 4 4 4 4 5 5 5 5 5 5 6 6 6 7 7 7 7 7 7 8 8 8 8 8 8 8 8 8 8 8
1 1 1 1 2 2 2 2 2 2 2 3 3 3 3 3 4 4 4 4 4 4 4 5 5 6 6 6 6 6 7 7 7 7 7 7 7 7 7 7 8 8 8
-0 0 0 1 1 1 1 1 1 2 2 2 2 2 2 3 3 3 3 4 4 3 4 4 5 5 5 5 6 6 6 6 6 7 7 7 7 7 7 7 7 7 7
-1 -1 -0 0 0 0 1 1 1 1 1 1 1 1 2 2 2 2 3 3 3 3 3 4 4 4 5 5 5 5 5 6 6 6 6 6 6 6 6 6 6 6 6
-2 -1 -1 -1 -0 -0 -0 0 0 0 0 1 1 1 1 1 1 2 2 2 3 3 3 3 3 4 4 4 4 5 5 5 5 5 5 5 6 6 6 6 6 6 6
-2 -2 -2 -1 -1 -1 -1 -1 -0 -0 -0 0 0 0 0 0 1 1 1 2 2 2 2 2 3 3 3 3 4 4 4 4 4 5 5 5 5 5 5 5 5 5 5
-3 -3 -2 -2 -2 -1 -1 -1 -1 -1 -1 -0 -0 -0 -0 -0 0 0 1 1 1 1 2 2 2 2 3 3 3 3 3 3 4 4 4 4 4 4 4 4 5 5 5
-4 -3 -3 -3 -2 -2 -2 -2 -1 -1 -1 -1 -1 -1 -0 -0 -0 -0 0 0 0 1 1 1 1 2 2 2 2 2 2 3 3 3 3 3 3 3 3 4 4 4 4
-4 -4 -4 -4 -3 -3 -2 -2 -2 -2 -1 -1 -1 -1 -1 -1 -1 -0 -0 -0 0 0 0 1 1 1 1 1 2 2 2 2 2 2 2 3 3 3 3 3 3 3 3
-5 -5 -5 -4 -4 -3 -3 -3 -2 -2 -2 -2 -1 -1 -1 -1 -1 -1 -1 -0 -0 -0 0 0 0 1 1 1 1 1 1 1 1 1 2 2 2 2 2 2 2 2 3
-6 -5 -5 -5 -5 -4 -4 -3 -3 -3 -3 -2 -2 -2 -2 -2 -1 -1 -1 -1 -1 -1 -0 -0 0 0 1 1 1 1 1 1 1 1 1 1 1 1 2 2 2 2 2
-6 -6 -6 -5 -5 -5 -4 -4 -4 -3 -3 -3 -2 -2 -2 -2 -2 -2 -2 -1 -1 -1 -1 -1 -0 -0 0 0 0 1 1 1 0 0 0 0 1 1 1 1 1 1 2
-7 -7 -6 -6 -6 -5 -5 -5 -4 -4 -4 -3 -3 -3 -3 -3 -2 -2 -2 -2 -2 -1 -1 -1 -1 -1 -1 -0 -0 -0 -0 -0 -0 -0 -0 -0 -0 -0 0 0 1 1 1
-7 -7 -7 -7 -6 -6 -5 -5 -5 -5 -5 -4 -4 -3 -3 -3 -3 -2 -2 -2 -2 -2 -2 -2 -1 -1 -1 -1 -1 -1 -0 -0 -1 -1 -1 -1 -1 -1 -1 -0 -0 0 0
Wind_Speed
4 4 3 3 3 2 2 2 2 2 2 2 2 2 2 2 2 1 2 1 2 2 3 3 3 4 5 5 5 5 6 7 7 7 8 8 7 7 7 7 7 7 7
6 4 3 3 3 3 2 2 2 2 2 2 2 2 2 1 0 0 0 1 1 2 3 4 4 4 4 4 5 5 6 6 6 6 6 7 7 7 7 7 7 7 7
7 5 3 3 4 4 3 3 2 2 2 2 2 2 2 2 1 1 1 1 2 2 3 4 4 5 5 5 5 5 5 5 6 6 6 6 7 7 7 7 7 7 7
9 6 4 3 5 4 3 2 1 1 1 1 2 2 2 2 2 1 2 2 3 3 3 4 4 5 5 5 5 5 6 6 6 6 6 6 6 7 7 7 7 7 6
9 7 4 4 5 4 3 2 2 1 2 2 2 2 2 1 2 2 1 1 2 3 4 4 4 5 6 6 6 6 6 7 7 7 7 6 6 6 7 7 7 7 7
10 9 5 4 5 3 2 2 2 2 1 2 3 3 3 2 1 1 1 1 1 2 3 3 4 4 5 6 6 7 7 8 7 7 7 7 7 6 6 7 7 7 8
9 8 6 4 3 1 2 2 2 2 2 2 2 2 3 3 3 2 0 1 1 2 2 3 4 4 4 6 7 7 7 8 8 7 7 7 7 8 7 8 8 8 8
8 7 7 4 3 2 1 1 1 1 2 2 1 1 1 2 2 2 1 1 1 1 2 3 3 4 4 5 6 7 7 8 7 8 8 8 8 7 9 8 9 8 8
9 8 7 5 3 2 1 2 1 1 2 3 2 1 1 2 2 2 2 2 2 1 1 1 2 3 3 4 5 7 7 7 7 8 8 8 9 9 8 9 8 9 9
9 8 8 6 4 3 2 2 2 2 2 3 3 3 3 2 1 2 2 2 3 2 2 2 2 2 2 3 4 6 8 8 8 8 8 8 9 9 9 9 9 9 9
8 8 8 7 4 3 3 3 2 2 2 3 3 3 4 3 3 3 4 3 3 3 2 2 2 3 3 3 3 5 7 9 9 9 9 8 9 9 8 8 8 8 8
6 8 9 8 6 4 3 3 3 3 4 4 4 3 3 3 3 3 4 4 4 4 3 2 2 3 4 5 5 5 6 7 9 9 9 9 9 8 8 7 7 7 7
5 6 8 7 6 5 5 4 4 4 5 5 4 4 4 4 4 3 3 4 4 3 3 3 3 4 5 4 4 6 6 7 8 9 10 9 8 7 7 6 6 6 6
5 8 9 8 8 7 6 5 4 5 5 5 5 5 4 4 4 4 3 3 4 4 3 4 3 3 4 4 5 6 6 7 7 7 8 7 7 7 6 6 6 6 5
8 8 9 9 8 7 6 5 4 5 4 5 5 5 4 4 3 4 3 3 4 5 6 4 3 3 4 4 5 4 4 5 6 6 6 6 6 7 6 6 7 6 5
8 9 8 8 7 6 5 5 5 5 5 5 5 5 5 4 3 3 3 3 3 4 5 3 3 2 2 3 5 5 4 5 5 6 6 7 8 8 7 7 7 7 7
8 8 8 7 7 6 5 5 5 5 6 6 5 6 6 5 4 4 3 3 4 3 5 4 3 2 3 3 3 4 4 4 4 6 6 7 8 8 8 8 8 8 8
8 9 9 8 7 7 6 6 6 6 7 7 7 6 7 5 5 5 4 5 4 4 4 5 4 3 4 4 3 3 3 4 4 5 6 7 8 8 9 9 9 8 8
8 9 8 8 7 7 6 6 7 7 8 8 7 7 7 7 7 5 5 5 4 5 4 4 4 3 3 3 3 2 3 2 3 5 6 6 7 7 8 8 9 9 8
8 8 8 8 7 7 7 7 7 7 7 8 7 7 7 8 8 7 6 6 5 5 4 5 4 3 3 3 3 3 3 2 2 3 4 5 6 6 8 8 8 9 9
9 9 7 7 7 7 7 7 6 7 7 7 7 7 8 9 10 9 7 6 6 5 5 5 5 3 3 3 4 3 4 2 3 2 2 3 3 3 5 6 7 8 9
9 8 7 7 8 8 12 13 9 6 6 6 7 7 7 8 10 11 11 10 9 8 7 6 5 6 6 4 4 4 3 3 4 2 2 3 3 3 4 5 7 8 9
8 8 7 7 8 9 14 13 12 8 6 6 7 7 7 7 9 7 9 10 10 11 11 8 8 8 7 6 6 6 5 5 4 3 3 3 2 3 4 5 6 7 8
7 7 8 8 8 10 14 14 13 7 6 6 6 7 8 7 8 8 8 8 8 8 9 8 8 8 8 7 7 7 6 4 2 2 3 3 3 3 2 3 5 7 7
8 8 8 7 8 9 14 14 13 6 5 6 7 7 8 8 10 10 8 8 7 7 9 10 10 10 10 10 8 4 4 4 4 3 3 3 3 2 2 2 4 4 5
8 8 9 7 8 8 13 14 13 5 5 6 6 6 9 9 11 11 8 7 8 7 6 6 7 8 7 8 10 8 7 6 4 3 4 3 3 1 1 2 2 2 3
Wind_Direction
5 3 6 7 359 4 1 353 349 356 340 321 327 342 6 8 16 22 69 115 146 168 175 174 166 164 166 164 162 158 153 154 158 161 167 166 158 153 153 151 146 142 136
357 358 3 1 352 347 338 331 334 342 322 323 332 335 343 348 302 335 89 145 163 176 177 172 169 165 166 169 166 158 156 161 160 160 164 167 164 165 165 165 160 155 151
353 355 2 357 345 341 346 338 338 348 327 336 324 341 350 340 308 261 219 180 184 174 166 178 184 181 178 177 176 175 173 172 169 167 163 168 175 174 173 174 172 166 166
352 352 359 348 340 344 353 345 340 336 327 322 321 318 340 331 310 264 235 203 173 172 178 182 188 186 188 191 191 191 189 185 179 173 174 172 179 186 182 181 177 175 175
347 348 345 344 339 347 353 344 351 347 332 327 324 312 305 295 303 277 245 172 165 171 170 183 188 194 198 203 206 202 198 190 187 185 182 183 184 192 192 189 189 188 186
342 342 340 346 344 346 344 352 351 347 331 316 310 319 307 287 279 257 212 179 174 178 172 171 178 190 204 206 207 207 205 195 192 190 189 192 194 195 199 199 200 200 200
337 342 340 336 341 318 321 340 353 339 327 333 318 314 304 286 265 260 218 141 164 190 185 184 182 186 198 211 212 213 210 202 198 196 199 199 203 204 209 211 211 211 212
336 335 337 321 324 297 314 332 349 326 302 319 309 296 291 301 304 290 276 257 234 186 200 213 190 192 195 196 209 212 210 213 209 209 211 214 217 218 218 220 217 215 216
331 329 328 323 309 287 262 273 267 316 276 282 276 240 230 241 298 271 260 249 246 262 221 208 219 210 200 191 197 203 207 210 215 219 222 225 225 225 226 221 218 219 218
330 325 325 323 302 291 258 255 275 283 245 262 277 275 270 259 244 273 285 273 259 251 240 222 224 235 217 199 201 203 207 211 217 221 224 228 230 228 225 224 223 224 221
327 330 326 319 302 290 264 257 259 259 255 260 264 276 284 283 252 250 266 271 281 270 249 216 206 219 226 219 209 211 213 212 218 226 229 230 229 225 221 222 223 223 220
318 325 329 321 307 297 273 260 248 245 254 264 267 264 262 255 262 260 259 254 263 275 275 256 219 212 224 220 219 226 225 219 221 225 229 232 233 231 225 224 227 230 228
318 309 319 310 303 297 290 280 250 240 246 253 257 263 263 258 262 271 263 265 270 273 268 267 230 219 225 218 220 226 229 228 229 229 234 237 233 230 227 226 228 233 235
312 315 319 312 305 296 289 278 253 249 247 248 257 264 271 268 264 259 254 256 268 273 261 254 261 223 218 220 224 227 228 229 232 234 237 239 234 225 223 225 226 229 231
311 314 315 305 301 298 288 277 253 249 253 254 252 257 266 271 268 270 257 238 238 258 259 250 253 243 222 215 218 221 222 220 223 229 229 227 230 227 223 223 226 224 226
310 306 306 303 297 291 287 273 263 249 250 255 255 253 261 268 266 265 260 257 251 247 258 258 263 267 225 232 227 228 223 221 223 226 234 232 227 224 222 222 223 224 226
307 306 300 296 294 290 282 270 268 259 248 252 255 252 257 261 260 261 257 253 256 251 255 271 282 277 254 242 233 231 220 217 223 229 240 238 228 224 221 222 223 222 223
308 307 300 295 290 291 287 277 270 266 252 246 246 246 250 252 250 252 252 251 254 253 249 257 271 267 261 236 221 225 221 229 222 228 236 239 234 225 222 224 223 221 221
309 307 306 296 291 289 287 281 271 261 257 249 243 241 243 242 245 246 250 250 252 256 249 241 251 257 264 237 224 238 236 228 233 230 234 235 236 231 228 228 227 225 220
307 304 303 300 295 292 289 282 278 268 262 256 249 244 242 238 239 239 242 244 247 250 249 233 237 243 250 238 213 218 237 241 245 226 234 239 240 243 237 235 232 228 224
306 302 302 304 301 295 289 284 278 276 267 262 253 248 244 242 243 242 241 236 235 238 242 234 230 236 233 217 222 223 229 230 249 226 226 232 223 232 239 239 235 229 225
304 302 304 303 302 299 299 298 291 281 278 270 265 257 253 248 246 247 245 242 236 233 233 235 234 226 228 232 231 224 216 224 250 214 209 243 209 231 239 231 231 228 224
304 305 304 302 299 302 304 301 294 291 277 270 265 261 259 255 253 243 245 246 243 243 239 235 235 232 227 224 220 222 219 224 242 213 203 241 226 234 239 229 230 224 218
303 303 302 301 299 301 307 308 301 294 281 277 272 263 254 249 248 244 237 237 239 242 240 237 234 235 233 219 215 219 222 225 250 222 198 237 242 248 248 225 232 221 217
301 299 301 300 301 303 305 307 301 288 282 281 279 273 265 249 249 251 246 238 243 250 252 248 246 241 236 223 211 205 207 205 233 239 211 215 233 251 249 235 223 217 216
299 300 298 298 299 301 305 307 303 289 281 282 280 278 276 270 257 250 242 238 241 245 244 249 250 243 231 216 213 209 207 207 219 234 213 193 203 188 257 264 219 202 207
Height
1539 1539 1539 1540 1540 1540 1541 1542 1542 1543 1543 1544 1545 1545 1545 1546 1546 1547 1547 1548 1549 1549 1550 1551 1552 1553 1554 1555 1556 1557 1558 1559 1560 1561 1562 1563 1563 1564 1565 1565 1566 1566 1567
1537 1537 1537 1538 1538 1539 1539 1540 1540 1541 1541 1542 1543 1543 1543 1544 1544 1545 1546 1546 1547 1547 1548 1549 1550 1551 1551 1553 1554 1555 1556 1557 1558 1559 1560 1561 1562 1563 1563 1564 1565 1565 1566
1535 1535 1535 1536 1536 1537 1537 1538 1538 1539 1539 1540 1540 1541 1541 1541 1542 1542 1543 1544 1545 1545 1546 1547 1548 1549 1549 1551 1552 1553 1554 1555 1556 1557 1559 1560 1560 1561 1562 1563 1563 1564 1565
1532 1532 1533 1533 1534 1534 1535 1535 1536 1536 1537 1537 1538 1538 1538 1539 1539 1540 1540 1541 1542 1543 1544 1545 1545 1546 1547 1548 1549 1550 1551 1553 1554 1555 1556 1557 1558 1559 1560 1561 1562 1563 1563
1529 1529 1530 1530 1531 1531 1532 1532 1533 1533 1534 1534 1535 1535 1535 1536 1536 1537 1538 1539 1539 1540 1541 1542 1543 1544 1545 1546 1547 1548 1549 1550 1551 1553 1554 1555 1556 1557 1558 1559 1560 1561 1561
1526 1527 1527 1527 1528 1528 1529 1529 1530 1530 1531 1531 1532 1532 1532 1532 1533 1534 1535 1536 1537 1538 1538 1539 1540 1541 1542 1543 1544 1545 1546 1548 1549 1550 1551 1552 1553 1554 1555 1556 1557 1558 1559
1523 1523 1523 1524 1524 1525 1525 1526 1526 1527 1528 1529 1529 1528 1528 1529 1529 1530 1531 1532 1534 1535 1536 1536 1537 1538 1539 1540 1541 1542 1543 1545 1546 1547 1548 1549 1550 1552 1553 1554 1554 1555 1556
1520 1520 1520 1520 1521 1521 1522 1522 1522 1523 1524 1526 1526 1526 1525 1526 1525 1526 1528 1529 1530 1531 1532 1533 1534 1535 1536 1537 1538 1539 1540 1541 1542 1543 1545 1546 1547 1548 1549 1550 1551 1552 1553
1516 1516 1516 1517 1517 1518 1518 1518 1519 1520 1520 1522 1524 1525 1524 1523 1522 1522 1523 1524 1526 1527 1528 1529 1530 1531 1532 1533 1534 1536 1537 1538 1539 1540 1541 1543 1543 1544 1545 1546 1547 1548 1549
1512 1512 1512 1513 1513 1514 1514 1514 1515 1516 1517 1517 1519 1520 1521 1520 1521 1519 1519 1520 1521 1522 1523 1524 1526 1527 1528 1529 1530 1531 1533 1534 1535 1536 1537 1538 1540 1541 1542 1542 1543 1544 1545
1508 1508 1508 1508 1509 1509 1510 1510 1511 1512 1513 1513 1514 1515 1516 1517 1517 1517 1515 1515 1517 1518 1519 1520 1521 1522 1523 1525 1526 1527 1528 1529 1531 1532 1533 1534 1535 1536 1537 1538 1539 1540 1541
1504 1504 1503 1504 1505 1505 1505 1506 1506 1507 1508 1509 1510 1511 1512 1512 1512 1512 1511 1511 1512 1513 1514 1515 1516 1517 1518 1520 1521 1522 1523 1525 1526 1527 1528 1529 1531 1532 1532 1533 1535 1536 1537
1500 1499 1499 1499 1500 1500 1500 1501 1501 1502 1503 1504 1505 1506 1506 1507 1508 1508 1508 1507 1508 1508 1509 1510 1511 1512 1513 1515 1516 1517 1518 1519 1521 1522 1523 1525 1526 1527 1528 1529 1530 1531 1532
1496 1495 1495 1495 1495 1496 1496 1496 1496 1497 1498 1498 1499 1500 1501 1502 1503 1504 1504 1504 1503 1503 1503 1504 1505 1507 1508 1509 1511 1512 1513 1514 1516 1517 1518 1519 1521 1522 1523 1524 1525 1526 1527
1492 1491 1491 1490 1490 1491 1491 1491 1491 1491 1492 1493 1493 1494 1495 1496 1497 1498 1499 1500 1501 1499 1498 1499 1500 1501 1503 1504 1505 1507 1508 1509 1510 1511 1512 1514 1515 1517 1518 1519 1520 1521 1522
1489 1487 1486 1485 1485 1485 1486 1486 1486 1486 1487 1487 1488 1488 1489 1490 1491 1493 1493 1494 1495 1495 1494 1493 1495 1496 1498 1499 1500 1501 1502 1503 1505 1506 1507 1509 1510 1511 1513 1514 1515 1516 1517
1484 1482 1481 1481 1480 1480 1480 1481 1481 1481 1481 1481 1482 1482 1483 1484 1485 1486 1487 1488 1489 1490 1489 1488 1490 1491 1493 1494 1495 1496 1497 1498 1499 1500 1502 1503 1504 1506 1507 1508 1510 1511 1512
1479 1478 1476 1475 1475 1475 1475 1475 1475 1475 1475 1475 1476 1477 1477 1478 1479 1480 1481 1482 1483 1484 1484 1483 1484 1486 1487 1488 1489 1490 1491 1493 1494 1495 1496 1497 1499 1500 1502 1503 1504 1505 1506
1475 1473 1472 1471 1470 1469 1469 1469 1469 1469 1469 1469 1470 1471 1471 1472 1473 1474 1475 1476 1477 1478 1479 1479 1479 1480 1481 1483 1484 1485 1486 1487 1488 1489 1491 1492 1493 1494 1496 1497 1498 1499 1500
1470 1468 1467 1465 1464 1464 1463 1463 1463 1463 1463 1463 1464 1464 1465 1466 1466 1467 1469 1470 1471 1472 1473 1474 1474 1475 1476 1477 1479 1479 1480 1482 1483 1484 1485 1487 1488 1489 1490 1491 1492 1494 1495
1466 1464 1462 1460 1459 1458 1457 1457 1458 1457 1457 1457 1457 1458 1459 1460 1461 1462 1463 1464 1465 1466 1467 1468 1468 1469 1470 1471 1473 1474 1475 1476 1477 1479 1480 1481 1482 1483 1485 1486 1487 1488 1489
1461 1459 1456 1455 1454 1453 1452 1452 1452 1451 1451 1450 1450 1451 1452 1453 1455 1456 1457 1458 1459 1460 1460 1461 1462 1463 1464 1466 1467 1469 1470 1471 1471 1473 1475 1475 1477 1478 1479 1480 1481 1483 1484
1457 1454 1452 1450 1449 1448 1448 1447 1446 1446 1445 1445 1445 1445 1446 1447 1448 1449 1450 1451 1452 1453 1455 1456 1456 1456 1458 1460 1462 1463 1464 1465 1466 1467 1470 1469 1471 1472 1474 1475 1476 1477 1478
1452 1450 1448 1446 1444 1443 1443 1442 1441 1440 1439 1439 1439 1439 1440 1440 1441 1442 1443 1444 1444 1446 1447 1449 1450 1451 1453 1454 1456 1457 1458 1460 1461 1462 1464 1464 1465 1467 1468 1469 1471 1472 1472
1448 1446 1443 1442 1440 1438 1437 1437 1436 1434 1433 1433 1433 1433 1434 1434 1435 1436 1437 1437 1438 1439 1441 1442 1443 1445 1446 1448 1449 1451 1452 1454 1454 1455 1458 1459 1460 1461 1462 1464 1465 1466 1467
1443 1441 1439 1437 1435 1433 1432 1432 1431 1430 1428 1428 1427 1427 1428 1428 1429 1430 1431 1431 1431 1432 1434 1435 1436 1438 1439 1440 1442 1444 1445 1447 1448 1449 1451 1454 1455 1456 1457 1458 1460 1461 1462